TimeMST,TemperatureF,Dew PointF,Humidity,Sea Level PressureIn,VisibilityMPH,Wind Direction,Wind SpeedMPH,Gust SpeedMPH,PrecipitationIn,Events,Conditions,WindDirDegrees,DateUTC
12:56 AM,1.9,-2.0,83,30.52,-9999.0,Calm,Calm,-,N/A,,Unknown,0,2013-01-23 07:56:00
1:56 AM,3.9,-0.0,84,30.53,-9999.0,Calm,Calm,-,N/A,,Unknown,0,2013-01-23 08:56:00
2:56 AM,3.9,-0.0,84,30.51,-9999.0,Calm,Calm,-,N/A,,Unknown,0,2013-01-23 09:56:00
3:56 AM,1.0,-2.9,83,30.50,-9999.0,Calm,Calm,-,N/A,,Unknown,0,2013-01-23 10:56:00
4:56 AM,-0.0,-5.1,79,30.55,-9999.0,Calm,Calm,-,N/A,,Unknown,0,2013-01-23 11:56:00
5:56 AM,-0.9,-5.1,83,30.59,-9999.0,Calm,Calm,-,N/A,,Unknown,0,2013-01-23 12:56:00
6:56 AM,-2.9,-8.0,79,30.61,-9999.0,Calm,Calm,-,N/A,,Unknown,0,2013-01-23 13:56:00
7:56 AM,-0.9,-5.1,83,30.60,-9999.0,Calm,Calm,-,N/A,,Unknown,0,2013-01-23 14:56:00
8:56 AM,1.9,-0.9,88,30.61,-9999.0,Calm,Calm,-,N/A,,Unknown,0,2013-01-23 15:56:00
9:56 AM,8.1,5.0,87,30.58,-9999.0,Calm,Calm,-,N/A,,Unknown,0,2013-01-23 16:56:00
10:56 AM,12.9,5.0,71,30.54,-9999.0,ESE,3.5,-,N/A,,Unknown,110,2013-01-23 17:56:00
11:56 AM,12.0,3.9,70,30.52,-9999.0,Calm,Calm,-,N/A,,Unknown,0,2013-01-23 18:56:00
12:56 PM,17.1,3.9,56,30.47,-9999.0,Calm,Calm,-,N/A,,Unknown,0,2013-01-23 19:56:00
1:56 PM,19.9,5.0,52,30.43,-9999.0,Calm,Calm,-,N/A,,Unknown,0,2013-01-23 20:56:00
2:56 PM,21.0,6.1,53,30.40,-9999.0,Calm,Calm,-,N/A,,Unknown,0,2013-01-23 21:56:00
3:56 PM,24.1,12.0,60,30.39,-9999.0,Calm,Calm,-,N/A,,Unknown,0,2013-01-23 22:56:00
4:56 PM,19.0,14.0,81,30.43,-9999.0,Calm,Calm,-,N/A,,Unknown,0,2013-01-23 23:56:00
5:56 PM,18.0,12.9,81,30.45,-9999.0,Calm,Calm,-,N/A,,Unknown,0,2013-01-24 00:56:00
6:56 PM,15.1,10.9,84,30.48,-9999.0,Calm,Calm,-,N/A,,Unknown,0,2013-01-24 01:56:00
7:56 PM,16.0,12.0,84,30.45,-9999.0,WNW,4.6,-,N/A,,Unknown,290,2013-01-24 02:56:00
8:56 PM,16.0,12.9,88,30.42,-9999.0,WNW,3.5,-,N/A,,Unknown,300,2013-01-24 03:56:00
9:56 PM,12.9,10.0,88,30.40,-9999.0,Calm,Calm,-,N/A,,Unknown,0,2013-01-24 04:56:00
10:56 PM,10.9,8.1,88,30.38,-9999.0,Calm,Calm,-,N/A,,Unknown,0,2013-01-24 05:56:00
11:56 PM,12.0,9.0,88,30.35,-9999.0,Calm,Calm,-,N/A,,Unknown,0,2013-01-24 06:56:00